When you browse on this site, cookies collect data to enhance your experience and personalize the content and advertising you see.
Visit our Privacy Policy to learn more. By continuing to use the site, you agree to this use of cookies and data.
  • In Lithuania
  • List of Countries
  • For 7 days
  • Water Temperature
  • Weather Map
  • Weather Widgets
  • user-avatar
    Login

    Hourly Weather Laszkar Gah

    Today, 9 December, Monday

    Time Temperature Precipitation Wind Pressure Humidity
    00:00 +15°C° 0 mm 4 mps 696 mmHg 29%
    01:00 +15°C° 0 mm 4 mps 696 mmHg 29%
    02:00 +14°C° 0 mm 4 mps 696 mmHg 31%
    03:00 +14°C° 0 mm 4 mps 696 mmHg 33%
    04:00 +14°C° 0 mm 4 mps 696 mmHg 37%
    05:00 +14°C° 0 mm 4 mps 696 mmHg 39%
    06:00 +14°C° 0 mm 4 mps 696 mmHg 41%
    07:00 +13°C° 0 mm 5 mps 697 mmHg 42%
    08:00 +14°C° 0 mm 5 mps 697 mmHg 43%
    09:00 +15°C° 0 mm 5 mps 697 mmHg 43%
    10:00 +16°C° 0 mm 5 mps 697 mmHg 44%
    11:00 +17°C° 0 mm 5 mps 697 mmHg 42%
    12:00 +19°C° 0 mm 5 mps 696 mmHg 40%
    13:00 +20°C° 0 mm 5 mps 696 mmHg 38%
    14:00 +20°C° 0 mm 5 mps 696 mmHg 39%
    15:00 +20°C° 0 mm 4 mps 696 mmHg 40%
    16:00 +20°C° 0 mm 4 mps 695 mmHg 41%
    17:00 +19°C° 0 mm 4 mps 695 mmHg 41%
    18:00 +18°C° 0 mm 4 mps 695 mmHg 41%
    19:00 +16°C° 0 mm 5 mps 696 mmHg 41%
    20:00 +17°C° 0 mm 4 mps 695 mmHg 43%
    21:00 +17°C° 0 mm 4 mps 695 mmHg 45%
    22:00 +17°C° 0 mm 4 mps 695 mmHg 46%
    23:00 +15°C° 0.5 mm 4 mps 695 mmHg 51%

    Tomorrow, 10 December, Tuesday

    Time Temperature Precipitation Wind Pressure Humidity
    00:00 +14°C° 0.5 mm 5 mps 695 mmHg 56%
    01:00 +14°C° 0.5 mm 5 mps 694 mmHg 60%
    02:00 +13°C° 1.2 mm 5 mps 694 mmHg 65%
    03:00 +13°C° 1.2 mm 5 mps 694 mmHg 69%
    04:00 +13°C° 1.2 mm 5 mps 694 mmHg 74%
    05:00 +13°C° 0.8 mm 5 mps 694 mmHg 76%
    06:00 +12°C° 0.8 mm 4 mps 695 mmHg 79%
    07:00 +12°C° 0.8 mm 3 mps 695 mmHg 81%
    08:00 +13°C° 0.2 mm 3 mps 695 mmHg 75%
    09:00 +16°C° 0.2 mm 3 mps 696 mmHg 68%
    10:00 +17°C° 0.2 mm 3 mps 696 mmHg 62%
    11:00 +17°C° 0 mm 3 mps 696 mmHg 59%
    12:00 +18°C° 0 mm 2 mps 695 mmHg 56%
    13:00 +20°C° 0 mm 1 mps 695 mmHg 53%
    14:00 +20°C° 0 mm 1 mps 694 mmHg 52%
    15:00 +20°C° 0 mm 1 mps 694 mmHg 51%
    16:00 +20°C° 0 mm 1 mps 694 mmHg 50%
    17:00 +19°C° 0 mm 1 mps 694 mmHg 53%
    18:00 +18°C° 0 mm 1 mps 694 mmHg 57%
    19:00 +18°C° 0 mm 1 mps 694 mmHg 60%
    20:00 +16°C° 0 mm 1 mps 694 mmHg 61%
    21:00 +16°C° 0 mm 1 mps 694 mmHg 62%
    22:00 +15°C° 0 mm 1 mps 694 mmHg 64%
    23:00 +14°C° 0 mm 0 mps 694 mmHg 64%

    Day after tomorrow, 11 December, Wednesday

    Time Temperature Precipitation Wind Pressure Humidity
    00:00 +14°C° 0 mm 0 mps 693 mmHg 65%
    01:00 +13°C° 0 mm 0 mps 693 mmHg 65%
    02:00 +14°C° 0 mm 1 mps 693 mmHg 65%
    03:00 +14°C° 0 mm 1 mps 693 mmHg 65%
    04:00 +13°C° 0 mm 1 mps 692 mmHg 65%
    05:00 +13°C° 0 mm 1 mps 693 mmHg 66%
    06:00 +13°C° 0 mm 1 mps 693 mmHg 66%
    07:00 +13°C° 0 mm 1 mps 693 mmHg 67%
    08:00 +14°C° 0 mm 1 mps 693 mmHg 62%
    09:00 +15°C° 0 mm 1 mps 694 mmHg 56%
    10:00 +17°C° 0 mm 2 mps 694 mmHg 51%
    11:00 +18°C° 0 mm 1 mps 693 mmHg 46%
    12:00 +19°C° 0 mm 1 mps 693 mmHg 41%
    13:00 +19°C° 0 mm 1 mps 692 mmHg 37%
    14:00 +17°C° 0.2 mm 3 mps 692 mmHg 45%
    15:00 +15°C° 0.2 mm 4 mps 692 mmHg 52%
    16:00 +13°C° 0.2 mm 5 mps 692 mmHg 60%
    17:00 +13°C° 0.4 mm 6 mps 692 mmHg 62%
    18:00 +11°C° 0.4 mm 6 mps 692 mmHg 63%
    19:00 +10°C° 0.4 mm 6 mps 692 mmHg 64%
    20:00 +11°C° 0 mm 4 mps 692 mmHg 65%
    21:00 +11°C° 0 mm 3 mps 692 mmHg 65%
    22:00 +12°C° 0 mm 1 mps 692 mmHg 66%
    23:00 +12°C° 0 mm 1 mps 692 mmHg 67%

    12 December, Thursday

    Time Temperature Precipitation Wind Pressure Humidity
    00:00 +10°C° 0 mm 2 mps 692 mmHg 68%
    01:00 +10°C° 0 mm 2 mps 692 mmHg 69%
    02:00 +10°C° 0 mm 2 mps 692 mmHg 71%
    03:00 +9°C° 0 mm 2 mps 691 mmHg 72%
    04:00 +9°C° 0 mm 2 mps 691 mmHg 73%
    05:00 +9°C° 0 mm 2 mps 691 mmHg 74%
    06:00 +10°C° 0 mm 1 mps 692 mmHg 75%
    07:00 +10°C° 0 mm 1 mps 692 mmHg 76%
    08:00 +11°C° 0 mm 1 mps 692 mmHg 71%
    09:00 +12°C° 0 mm 2 mps 693 mmHg 65%
    10:00 +13°C° 0 mm 2 mps 693 mmHg 60%
    11:00 +14°C° 0 mm 2 mps 693 mmHg 56%
    12:00 +14°C° 0 mm 3 mps 692 mmHg 52%
    13:00 +14°C° 0 mm 3 mps 692 mmHg 49%
    14:00 +15°C° 0 mm 4 mps 692 mmHg 47%
    15:00 +15°C° 0 mm 4 mps 691 mmHg 46%
    16:00 +15°C° 0 mm 4 mps 691 mmHg 45%
    17:00 +14°C° 0 mm 4 mps 691 mmHg 48%
    18:00 +13°C° 0 mm 4 mps 692 mmHg 52%
    19:00 +12°C° 0 mm 4 mps 692 mmHg 55%
    20:00 +12°C° 0 mm 4 mps 692 mmHg 56%
    21:00 +11°C° 0 mm 4 mps 692 mmHg 56%
    22:00 +11°C° 0 mm 4 mps 692 mmHg 56%
    23:00 +11°C° 0 mm 4 mps 692 mmHg 55%

    13 December, Friday

    Time Temperature Precipitation Wind Pressure Humidity
    00:00 +10°C° 0 mm 4 mps 692 mmHg 54%
    01:00 +10°C° 0 mm 4 mps 692 mmHg 53%
    02:00 +10°C° 0 mm 4 mps 692 mmHg 54%
    03:00 +8°C° 0 mm 4 mps 692 mmHg 56%
    04:00 +9°C° 0 mm 3 mps 692 mmHg 57%
    05:00 +9°C° 0 mm 3 mps 692 mmHg 58%
    06:00 +8°C° 0 mm 3 mps 692 mmHg 59%
    07:00 +8°C° 0 mm 2 mps 693 mmHg 60%
    08:00 +9°C° 0 mm 2 mps 693 mmHg 54%
    09:00 +10°C° 0 mm 2 mps 694 mmHg 49%
    10:00 +12°C° 0 mm 1 mps 694 mmHg 43%
    11:00 +13°C° 0 mm 2 mps 694 mmHg 40%
    12:00 +14°C° 0 mm 2 mps 694 mmHg 36%
    13:00 +14°C° 0 mm 3 mps 693 mmHg 33%
    14:00 +14°C° 0 mm 3 mps 693 mmHg 33%
    15:00 +15°C° 0 mm 2 mps 693 mmHg 33%
    16:00 +15°C° 0 mm 2 mps 693 mmHg 32%
    17:00 +15°C° 0 mm 2 mps 694 mmHg 35%
    18:00 +14°C° 0 mm 2 mps 694 mmHg 38%
    19:00 +14°C° 0 mm 2 mps 694 mmHg 41%
    20:00 +14°C° 0 mm 2 mps 694 mmHg 41%
    21:00 +14°C° 0 mm 2 mps 694 mmHg 42%
    22:00 +12°C° 0 mm 3 mps 694 mmHg 42%
    23:00 +12°C° 0 mm 3 mps 694 mmHg 43%

    14 December, Saturday

    Time Temperature Precipitation Wind Pressure Humidity
    00:00 +12°C° 0 mm 4 mps 694 mmHg 44%
    01:00 +12°C° 0 mm 5 mps 694 mmHg 44%
    02:00 +10°C° 0 mm 5 mps 693 mmHg 45%
    03:00 +10°C° 0 mm 6 mps 693 mmHg 45%
    04:00 +10°C° 0 mm 6 mps 693 mmHg 46%
    05:00 +10°C° 0 mm 6 mps 693 mmHg 46%
    06:00 +10°C° 0 mm 6 mps 694 mmHg 47%
    07:00 +10°C° 0 mm 6 mps 694 mmHg 47%
    08:00 +11°C° 0 mm 7 mps 694 mmHg 45%
    09:00 +11°C° 0 mm 7 mps 695 mmHg 43%
    10:00 +12°C° 0 mm 7 mps 695 mmHg 41%
    11:00 +14°C° 0 mm 7 mps 695 mmHg 41%
    12:00 +14°C° 0 mm 7 mps 695 mmHg 42%
    13:00 +15°C° 0 mm 6 mps 694 mmHg 42%
    14:00 +15°C° 0 mm 6 mps 694 mmHg 46%
    15:00 +14°C° 0 mm 7 mps 694 mmHg 50%
    16:00 +14°C° 0 mm 7 mps 694 mmHg 54%
    17:00 +12°C° 0 mm 7 mps 694 mmHg 59%
    18:00 +11°C° 0 mm 7 mps 694 mmHg 63%
    19:00 +10°C° 0 mm 8 mps 695 mmHg 68%
    20:00 +10°C° 0 mm 7 mps 695 mmHg 69%
    21:00 +10°C° 0 mm 7 mps 695 mmHg 70%
    22:00 +9°C° 0 mm 7 mps 695 mmHg 72%
    23:00 +9°C° 0 mm 6 mps 695 mmHg 72%
    Show more